Wind_Speed
44 45 45 45 45 45 46 46 47 47 48 48 49 49 50 50 51 51 52 52 52 52 52 52 52 52 52 51 51 50 50 49 47 45 43 40 40 42 43 46 48 49
44 45 46 47 47 48 49 50 50 50 51 51 52 53 54 55 55 55 56 56 56 56 55 55 55 55 54 54 54 53 53 52 50 49 47 46 44 43 43 44 47 50
47 48 49 49 50 50 51 52 52 53 54 54 55 56 56 57 57 57 58 58 58 58 58 58 57 57 57 57 56 55 54 54 53 52 51 50 49 48 47 46 46 47
51 51 52 53 53 54 54 55 55 56 57 57 58 59 59 59 59 59 60 60 60 60 60 60 60 60 59 59 58 58 57 56 56 55 54 53 53 52 52 51 50 49
51 52 53 54 55 55 56 56 57 58 59 59 60 61 61 61 61 61 61 62 62 62 63 63 63 63 63 62 61 60 60 60 59 59 58 57 56 56 55 55 54 53
50 52 53 54 54 55 56 57 58 59 59 60 61 62 63 63 63 64 64 65 65 65 66 66 66 66 65 65 64 64 64 63 63 63 62 62 61 60 60 59 58 57
49 51 52 53 54 55 56 57 59 60 60 61 62 63 64 65 65 66 66 67 68 68 69 69 69 69 69 69 68 68 67 67 66 66 65 65 65 64 63 63 62 61
50 51 52 54 55 56 57 59 60 61 62 63 63 64 65 66 66 67 68 68 69 70 70 71 71 71 71 71 71 71 70 70 69 68 68 67 67 67 67 66 66 65
50 52 53 54 55 57 58 59 60 62 63 64 64 65 66 67 68 68 69 70 70 71 71 72 72 73 73 73 73 73 73 72 72 71 71 70 70 70 70 69 69 68
51 52 53 55 56 58 59 61 62 63 65 66 66 67 68 69 70 71 71 72 73 73 73 74 74 75 75 75 75 75 75 75 75 75 75 74 74 73 73 73 72 72
53 55 56 58 59 61 62 64 65 66 67 69 69 70 71 72 73 73 74 75 75 75 76 76 76 77 77 77 77 77 77 77 77 77 77 77 77 76 76 76 75 75
57 59 60 62 63 64 66 67 68 69 70 71 72 73 73 74 74 75 76 76 77 77 77 78 78 78 78 78 78 78 78 78 78 78 78 78 78 78 78 78 78 77
60 62 63 64 65 67 68 69 70 71 72 73 74 74 75 75 76 77 78 78 78 79 80 80 80 80 80 80 80 80 79 79 79 79 78 78 78 78 78 78 79 79
62 63 65 66 67 68 69 70 71 72 74 75 76 77 77 78 78 79 79 80 80 81 81 81 81 80 80 79 79 78 78 77 77 77 76 76 76 76 76 76 77 78
63 65 66 68 69 70 71 72 73 74 76 77 78 78 78 79 79 79 79 79 79 79 79 78 78 77 76 76 75 75 75 74 74 74 73 73 73 73 73 73 74 74
66 67 69 71 72 72 73 74 75 75 76 77 77 77 77 76 76 76 76 75 75 75 75 75 74 74 73 73 73 73 72 72 72 72 72 72 72 73 73 72 72 72
70 71 72 73 74 74 75 75 75 75 75 75 75 74 74 73 73 73 73 72 72 72 73 72 72 72 72 72 72 72 72 72 71 72 72 72 72 72 73 73 72 72
74 74 74 74 75 75 75 75 74 74 73 73 72 72 72 71 71 71 71 71 71 71 71 71 71 71 71 71 71 71 70 70 71 71 71 71 72 72 72 72 72 72
76 76 76 75 75 75 74 73 72 71 71 71 70 70 70 70 70 69 69 69 69 69 69 69 69 69 69 69 69 69 69 69 69 69 69 69 70 71 71 71 71 71
77 76 75 74 73 72 71 71 70 70 69 69 70 69 69 69 68 68 68 68 67 67 68 68 68 68 68 68 68 67 67 67 68 67 67 68 68 69 70 70 70 69
74 73 72 71 70 70 70 70 70 70 69 69 69 69 69 68 68 68 68 68 68 68 68 68 68 68 69 69 69 69 69 69 69 69 69 68 69 69 70 70 69 69
71 71 70 70 70 70 70 70 70 70 69 69 69 69 69 69 69 69 69 69 69 69 69 70 70 70 70 70 70 70 70 70 70 70 70 69 69 70 70 70 70 69
71 71 71 70 70 70 70 70 70 70 70 70 69 69 69 68 68 68 68 68 68 68 68 68 69 69 69 69 69 68 68 68 67 67 67 67 67 67 67 68 68 68
71 71 71 71 71 71 71 70 70 69 69 68 67 66 65 65 64 64 64 64 64 64 64 64 64 65 65 64 64 64 63 63 62 63 63 63 63 62 62 62 63 63
72 72 72 72 71 70 69 67 66 65 64 63 62 61 60 59 59 59 59 59 59 58 59 59 59 60 60 60 60 59 58 58 57 58 58 58 58 57 57 57 57 58
72 72 71 69 68 66 65 64 62 61 60 59 58 57 56 55 55 54 54 54 55 54 55 55 56 56 56 56 56 55 55 54 54 54 54 54 54 53 53 53 53 54
Wind_Direction
261 262 263 264 264 265 265 266 267 267 267 267 267 267 268 268 268 268 270 271 272 272 273 274 274 275 275 275 275 275 275 274 272 269 265 259 255 254 254 253 252 252
262 263 264 264 265 265 266 267 267 268 268 268 268 268 268 268 269 269 270 270 272 272 273 273 274 274 274 274 273 273 272 271 270 268 267 264 260 257 255 252 249 248
265 265 266 266 266 266 266 267 267 267 268 268 268 268 268 268 268 268 268 269 269 270 270 271 271 272 272 272 272 271 270 269 268 267 265 265 263 261 259 257 253 251
268 268 268 268 267 267 268 268 269 269 269 269 269 269 268 268 268 268 268 268 268 269 269 269 270 270 270 271 271 271 271 270 268 267 265 264 263 262 261 260 258 255
269 270 270 270 269 269 269 269 269 269 269 270 270 270 270 270 270 269 269 269 269 269 269 269 270 270 270 270 270 269 269 269 268 267 266 264 263 262 260 259 259 257
268 268 269 270 270 270 270 270 270 270 270 270 270 270 270 270 270 270 270 270 270 270 270 271 271 271 270 270 270 269 268 267 266 265 265 264 263 262 261 259 258 257
270 271 271 271 271 271 271 271 271 271 271 271 270 270 270 270 270 270 270 270 270 270 271 271 271 271 271 271 270 269 269 268 267 265 264 263 263 262 261 260 258 257
274 274 274 274 274 274 274 274 274 274 274 273 273 273 273 273 272 272 272 272 272 272 272 271 272 271 271 271 271 270 269 268 268 267 265 264 263 262 261 260 259 257
277 277 278 278 278 279 278 278 278 278 278 277 277 277 277 277 276 276 275 275 274 274 274 273 273 272 272 271 271 271 270 269 268 268 266 265 264 263 262 260 259 257
280 281 281 281 280 280 280 279 279 279 279 279 279 278 278 278 278 277 277 276 276 275 275 274 273 273 272 272 271 271 270 270 269 268 267 266 265 264 262 261 260 258
283 283 283 282 282 281 281 281 280 280 280 280 279 279 279 278 278 278 277 277 276 276 275 274 274 273 273 272 272 271 270 270 269 268 267 266 265 264 263 262 260 259
284 283 283 282 282 281 281 281 281 280 280 280 279 279 279 278 278 278 278 277 277 277 276 276 275 275 274 273 273 272 271 270 269 268 267 266 265 264 263 261 260 259
283 282 282 282 281 281 281 281 281 281 281 280 280 280 280 280 279 279 279 278 278 278 277 277 276 276 275 274 274 273 272 271 270 269 267 266 265 263 262 261 259 258
283 283 283 282 282 282 282 282 282 282 282 282 281 281 281 280 280 280 279 279 278 278 277 277 276 275 275 274 274 273 272 271 271 270 269 267 266 264 262 261 259 258
285 285 285 284 284 284 284 283 283 283 282 282 281 281 281 280 280 279 279 278 278 277 277 276 276 275 275 274 274 273 273 272 271 270 269 268 267 265 263 261 259 258
288 288 287 287 286 286 285 285 284 284 283 282 282 281 281 280 280 279 279 278 278 277 277 276 276 276 275 274 274 273 273 272 271 271 270 269 268 266 265 263 261 258
291 290 289 289 288 288 287 287 286 285 284 283 283 282 281 281 280 279 279 278 278 277 277 276 276 275 275 274 274 273 272 271 271 270 269 268 267 266 265 264 263 261
293 292 291 291 290 289 289 288 286 285 284 283 283 282 281 281 280 279 278 278 277 277 276 276 275 275 274 273 273 272 271 270 270 269 268 267 266 266 265 263 263 262
294 294 293 292 291 290 289 288 287 286 285 284 283 282 282 281 280 279 279 278 277 276 276 275 275 274 273 273 272 271 271 270 269 268 267 266 266 265 264 263 262 261
295 294 293 292 291 290 289 288 287 287 286 285 284 283 282 282 281 280 279 278 277 276 275 275 274 274 273 273 272 271 271 270 269 269 267 267 266 265 264 263 262 260
296 295 295 294 293 292 291 290 289 288 287 286 285 284 283 282 281 280 279 278 277 276 275 275 274 274 273 273 272 272 272 271 270 270 269 267 266 265 264 263 262 260
298 297 297 296 294 293 292 291 289 288 287 286 285 283 282 281 280 279 278 277 276 276 275 275 274 274 273 273 273 272 272 272 271 271 270 269 267 267 266 264 263 261
299 298 297 296 295 293 292 291 290 289 287 286 285 284 282 281 280 279 278 277 276 276 275 275 274 274 273 273 273 273 272 272 272 271 270 269 269 267 266 265 264 262
300 299 298 297 295 294 293 292 290 289 288 287 286 284 283 282 281 280 279 278 277 276 276 275 275 274 274 274 273 273 273 272 272 271 270 270 269 268 267 266 265 263
300 299 298 297 296 295 294 293 292 290 289 288 287 285 284 283 281 280 279 278 277 277 276 275 275 275 274 274 274 273 273 272 271 271 270 270 269 268 267 266 265 263
300 300 299 298 297 296 295 294 293 292 291 289 287 286 284 283 281 280 279 278 277 276 276 275 275 275 275 275 275 274 274 273 272 271 270 269 269 268 267 266 265 263
Height
10874 10874 10873 10873 10872 10872 10871 10870 10870 10869 10869 10869 10868 10867 10867 10866 10866 10866 10865 10865 10865 10865 10865 10865 10866 10866 10866 10866 10867 10867 10868 10869 10869 10871 10872 10873 10874 10875 10876 10876 10877 10877
10868 10867 10867 10866 10866 10865 10864 10863 10863 10862 10862 10861 10861 10860 10859 10859 10859 10859 10858 10858 10858 10857 10857 10857 10857 10857 10857 10858 10859 10860 10860 10861 10862 10863 10864 10865 10867 10867 10868 10870 10871 10871
10862 10861 10860 10859 10859 10858 10857 10856 10855 10855 10854 10853 10853 10852 10851 10851 10851 10851 10850 10850 10850 10850 10849 10849 10849 10849 10849 10849 10850 10851 10852 10852 10853 10854 10856 10857 10858 10859 10860 10862 10863 10864
10855 10854 10853 10852 10851 10850 10850 10849 10847 10846 10845 10845 10844 10843 10843 10843 10843 10842 10841 10841 10841 10841 10841 10841 10840 10840 10840 10840 10841 10841 10842 10843 10843 10845 10846 10848 10849 10850 10851 10853 10854 10856
10847 10845 10844 10844 10843 10842 10841 10840 10839 10837 10837 10836 10835 10834 10833 10833 10833 10833 10832 10832 10831 10831 10831 10830 10830 10830 10830 10830 10831 10831 10832 10833 10833 10835 10836 10837 10839 10840 10842 10843 10845 10847
10839 10838 10837 10836 10835 10834 10833 10831 10830 10829 10828 10827 10826 10824 10823 10823 10823 10823 10822 10822 10821 10820 10819 10819 10819 10819 10819 10819 10820 10821 10821 10822 10823 10824 10825 10826 10828 10829 10831 10833 10835 10837
10832 10831 10830 10828 10827 10826 10824 10823 10821 10819 10818 10818 10817 10815 10814 10813 10813 10813 10812 10811 10810 10809 10808 10808 10808 10808 10808 10808 10808 10809 10809 10810 10811 10813 10814 10815 10816 10818 10819 10821 10823 10825
10825 10823 10822 10820 10819 10817 10815 10813 10811 10809 10808 10807 10806 10805 10804 10803 10803 10802 10801 10800 10799 10798 10797 10797 10797 10796 10796 10796 10796 10796 10797 10798 10799 10800 10802 10804 10805 10806 10807 10809 10811 10813
10818 10816 10814 10812 10810 10808 10806 10804 10802 10800 10798 10796 10795 10794 10792 10791 10790 10790 10789 10788 10787 10786 10786 10785 10784 10784 10784 10784 10784 10784 10784 10785 10786 10787 10789 10790 10792 10793 10795 10797 10799 10801
10811 10808 10806 10804 10802 10799 10797 10794 10792 10790 10788 10786 10785 10783 10782 10780 10779 10777 10776 10775 10775 10774 10774 10773 10772 10771 10772 10772 10772 10772 10772 10772 10773 10774 10775 10776 10778 10779 10781 10783 10785 10787
10803 10800 10798 10795 10792 10790 10787 10785 10783 10780 10778 10776 10774 10773 10771 10769 10767 10766 10764 10763 10762 10761 10761 10760 10759 10759 10759 10759 10759 10759 10759 10759 10759 10760 10761 10762 10763 10765 10767 10769 10771 10773
10795 10792 10789 10786 10783 10781 10778 10775 10773 10770 10768 10765 10763 10762 10760 10758 10756 10754 10753 10751 10750 10748 10747 10746 10745 10745 10745 10744 10744 10744 10744 10745 10745 10746 10747 10748 10749 10750 10752 10753 10755 10757
10786 10783 10780 10777 10774 10771 10768 10765 10763 10760 10757 10754 10751 10749 10748 10746 10744 10742 10740 10738 10737 10735 10733 10732 10731 10731 10730 10730 10729 10729 10729 10729 10729 10730 10731 10732 10734 10735 10736 10738 10739 10741
10777 10774 10770 10767 10764 10761 10758 10755 10752 10749 10745 10742 10739 10737 10736 10734 10732 10729 10727 10725 10723 10721 10720 10718 10718 10717 10716 10715 10714 10714 10714 10714 10714 10714 10715 10716 10717 10719 10720 10722 10723 10725
10767 10764 10759 10756 10753 10750 10747 10744 10741 10737 10733 10730 10727 10725 10723 10722 10719 10717 10714 10712 10710 10708 10706 10705 10704 10703 10703 10702 10701 10700 10700 10700 10699 10700 10700 10701 10702 10703 10704 10706 10708 10710
10756 10753 10748 10744 10741 10738 10735 10732 10728 10725 10721 10717 10714 10712 10711 10709 10707 10704 10701 10699 10697 10695 10693 10692 10691 10690 10689 10689 10688 10687 10687 10686 10686 10686 10686 10687 10687 10687 10688 10690 10692 10695
10744 10741 10736 10732 10728 10725 10721 10718 10715 10712 10708 10704 10702 10699 10698 10696 10694 10691 10689 10687 10685 10683 10681 10680 10679 10678 10677 10676 10675 10675 10675 10674 10674 10673 10673 10674 10674 10674 10674 10676 10678 10680
10731 10727 10724 10720 10716 10712 10708 10705 10702 10698 10695 10692 10689 10687 10685 10683 10681 10679 10677 10676 10674 10672 10669 10668 10667 10666 10665 10664 10663 10663 10662 10662 10661 10661 10661 10661 10661 10660 10661 10663 10664 10665
10718 10714 10710 10706 10702 10698 10695 10691 10688 10685 10682 10679 10677 10674 10672 10671 10669 10667 10665 10664 10662 10660 10658 10656 10655 10654 10653 10652 10651 10651 10650 10650 10649 10649 10649 10649 10648 10647 10647 10649 10651 10653
10705 10700 10696 10693 10689 10685 10681 10677 10674 10672 10669 10667 10664 10661 10659 10658 10656 10654 10652 10651 10650 10648 10646 10644 10643 10642 10641 10640 10639 10639 10638 10638 10637 10637 10637 10637 10636 10635 10634 10635 10638 10640
10691 10687 10683 10679 10675 10671 10668 10664 10661 10658 10656 10653 10651 10648 10646 10645 10643 10641 10639 10638 10636 10635 10633 10632 10631 10630 10629 10627 10627 10626 10626 10625 10624 10624 10624 10624 10624 10623 10622 10622 10624 10626
10678 10673 10670 10666 10662 10658 10654 10651 10648 10645 10642 10640 10638 10635 10633 10631 10630 10628 10626 10624 10622 10621 10620 10619 10618 10617 10616 10615 10614 10613 10613 10612 10612 10611 10611 10611 10610 10610 10609 10609 10610 10612
10666 10661 10657 10653 10650 10646 10642 10638 10635 10631 10629 10626 10624 10622 10620 10618 10616 10614 10612 10610 10609 10608 10607 10605 10604 10603 10602 10602 10601 10601 10601 10600 10599 10598 10597 10597 10597 10597 10596 10596 10596 10598
10655 10650 10645 10641 10637 10633 10629 10625 10621 10618 10615 10612 10610 10608 10606 10604 10602 10600 10599 10597 10596 10595 10594 10593 10592 10590 10590 10589 10589 10589 10589 10588 10587 10586 10585 10585 10585 10584 10584 10584 10584 10584
10644 10638 10634 10629 10624 10620 10615 10612 10608 10605 10602 10599 10597 10596 10594 10592 10590 10588 10587 10586 10585 10584 10583 10582 10581 10579 10578 10578 10578 10578 10578 10577 10577 10576 10575 10574 10574 10573 10573 10573 10573 10573
10632 10626 10622 10617 10612 10607 10603 10599 10596 10593 10590 10588 10586 10584 10582 10581 10579 10578 10576 10575 10574 10574 10573 10572 10571 10569 10568 10568 10567 10567 10567 10566 10566 10565 10565 10564 10564 10564 10563 10563 10563 10563